Radiation Dose at Monitoring Post of Fukushima Daini Nuclear Power Station
Date,Time,MP-1(microSv/h),MP-2(microSv/h),MP-3(microSv/h),MP-4(microSv/h),MP-5(microSv/h),MP-6(microSv/h),MP-7(microSv/h),Wind Direction,Wind Velocity(m/s),Rain
2020/07/08,00:00,0.166,0.152,0.243,0.235,0.238,0.131,0.081,west,2.5,Yes
2020/07/08,00:10,0.167,0.152,0.241,0.234,0.242,0.130,0.082,southwest,2.1,Yes
2020/07/08,00:20,0.167,0.153,0.244,0.235,0.241,0.132,0.082,south-southwest,2.6,Yes
2020/07/08,00:30,0.167,0.152,0.243,0.236,0.239,0.131,0.081,south-southwest,3.1,Yes
2020/07/08,00:40,0.166,0.153,0.242,0.233,0.242,0.131,0.082,south,3.1,Yes
2020/07/08,00:50,0.168,0.154,0.246,0.236,0.242,0.132,0.082,south,2.0,Yes
2020/07/08,01:00,0.166,0.152,0.243,0.235,0.238,0.131,0.081,south-southwest,0.8,Yes
2020/07/08,01:10,0.167,0.152,0.243,0.233,0.239,0.131,0.082,south,0.8,Yes
2020/07/08,01:20,0.167,0.153,0.245,0.236,0.243,0.133,0.082,-,CALM,No
2020/07/08,01:30,0.165,0.152,0.241,0.234,0.239,0.131,0.082,-,CALM,No
2020/07/08,01:40,0.168,0.153,0.242,0.233,0.239,0.131,0.082,-,CALM,No
2020/07/08,01:50,0.166,0.151,0.243,0.235,0.243,0.131,0.081,south-southwest,0.9,No
2020/07/08,02:00,0.165,0.151,0.242,0.234,0.240,0.130,0.082,west-southwest,0.6,No
2020/07/08,02:10,0.167,0.152,0.242,0.233,0.239,0.131,0.081,west-southwest,1.4,No
2020/07/08,02:20,0.166,0.152,0.243,0.235,0.242,0.131,0.081,west,2.1,Yes
2020/07/08,02:30,0.166,0.152,0.240,0.233,0.240,0.131,0.081,west-northwest,1.3,No
2020/07/08,02:40,0.167,0.150,0.244,0.232,0.238,0.131,0.081,northwest,1.6,No
2020/07/08,02:50,0.164,0.152,0.242,0.235,0.241,0.130,0.082,west-northwest,1.1,No
2020/07/08,03:00,0.167,0.152,0.240,0.232,0.241,0.131,0.081,northwest,0.7,No
2020/07/08,03:10,0.165,0.151,0.244,0.232,0.238,0.132,0.081,west-southwest,0.8,No
2020/07/08,03:20,0.165,0.150,0.241,0.236,0.241,0.130,0.081,southwest,1.5,No
2020/07/08,03:30,0.166,0.151,0.241,0.232,0.240,0.130,0.081,west-southwest,1.0,No
2020/07/08,03:40,0.165,0.151,0.244,0.234,0.239,0.132,0.081,south,1.0,Yes
2020/07/08,03:50,0.166,0.152,0.242,0.235,0.241,0.131,0.081,south,1.1,Yes
2020/07/08,04:00,0.166,0.152,0.242,0.232,0.242,0.131,0.081,south,1.8,No
2020/07/08,04:10,0.164,0.152,0.244,0.235,0.240,0.131,0.081,south,1.1,No
2020/07/08,04:20,0.167,0.151,0.242,0.235,0.242,0.130,0.081,south,1.9,Yes
2020/07/08,04:30,0.167,0.151,0.242,0.233,0.242,0.131,0.082,south,1.5,Yes
2020/07/08,04:40,0.167,0.153,0.243,0.236,0.239,0.132,0.081,south-southwest,1.0,Yes
2020/07/08,04:50,0.167,0.152,0.242,0.235,0.241,0.130,0.081,south,0.8,Yes
2020/07/08,05:00,0.166,0.152,0.245,0.233,0.242,0.131,0.081,south-southeast,2.4,No
2020/07/08,05:10,0.166,0.152,0.243,0.235,0.238,0.131,0.080,south,4.6,No
2020/07/08,05:20,0.166,0.151,0.242,0.233,0.240,0.131,0.080,south,4.3,No
2020/07/08,05:30,0.165,0.151,0.244,0.233,0.240,0.130,0.080,south-southwest,5.1,No
2020/07/08,05:40,0.167,0.151,0.242,0.235,0.239,0.130,0.081,south-southwest,2.5,No
2020/07/08,05:50,0.166,0.151,0.241,0.232,0.241,0.130,0.080,south,4.1,No
2020/07/08,06:00,0.165,0.152,0.244,0.233,0.240,0.130,0.080,south,4.3,No
2020/07/08,06:10,0.167,0.151,0.242,0.234,0.238,0.129,0.080,south-southeast,3.5,No
2020/07/08,06:20,0.164,0.151,0.241,0.231,0.239,0.130,0.080,south-southeast,5.1,No
2020/07/08,06:30,0.164,0.150,0.243,0.233,0.239,0.130,0.079,south,6.3,No
2020/07/08,06:40,0.165,0.150,0.240,0.233,0.237,0.129,0.079,south,5.9,No
2020/07/08,06:50,0.163,0.151,0.241,0.233,0.239,0.131,0.080,south-southeast,5.9,No
2020/07/08,07:00,0.166,0.151,0.242,0.233,0.240,0.129,0.080,south-southeast,6.5,No
2020/07/08,07:10,0.165,0.151,0.239,0.231,0.238,0.129,0.080,south,3.8,Yes
2020/07/08,07:20,0.164,0.150,0.242,0.234,0.241,0.130,0.080,south,3.6,Yes
2020/07/08,07:30,0.167,0.150,0.240,0.233,0.240,0.129,0.079,south-southwest,2.5,No
2020/07/08,07:40,0.164,0.150,0.240,0.232,0.238,0.129,0.080,southwest,0.6,No
2020/07/08,07:50,0.164,0.149,0.242,0.234,0.241,0.130,0.080,west,1.1,No
2020/07/08,08:00,0.166,0.151,0.241,0.233,0.239,0.130,0.080,northwest,1.8,Yes
2020/07/08,08:10,0.164,0.152,0.241,0.231,0.236,0.129,0.079,northwest,2.7,Yes
2020/07/08,08:20,0.165,0.150,0.244,0.234,0.240,0.130,0.080,north-northwest,3.6,No
2020/07/08,08:30,0.166,0.151,0.242,0.233,0.240,0.131,0.079,north-northwest,5.2,Yes
2020/07/08,08:40,0.165,0.152,0.241,0.233,0.238,0.130,0.081,north,5.8,Yes
2020/07/08,08:50,0.165,0.151,0.243,0.234,0.239,0.131,0.082,north,5.9,Yes
2020/07/08,09:00,0.166,0.151,0.240,0.232,0.241,0.130,0.081,north,6.1,Yes
2020/07/08,09:10,0.165,0.151,0.239,0.230,0.237,0.130,0.081,north-northeast,4.8,Yes
2020/07/08,09:20,0.165,0.151,0.241,0.231,0.236,0.130,0.081,northeast,5.3,Yes
2020/07/08,09:30,0.165,0.153,0.238,0.228,0.238,0.130,0.083,northeast,6.2,Yes
2020/07/08,09:40,0.165,0.153,0.240,0.230,0.238,0.131,0.084,north-northeast,5.8,Yes
2020/07/08,09:50,0.164,0.154,0.237,0.225,0.241,0.131,0.084,-,CALM,Yes
2020/07/08,10:00,0.157,0.153,0.231,0.222,0.237,0.130,0.085,-,CALM,Yes
2020/07/08,10:10,0.158,0.153,0.230,0.224,0.237,0.131,0.087,north-northeast,15.0,Yes
2020/07/08,10:20,0.150,0.150,0.218,0.216,0.233,0.128,0.087,-,CALM,Yes
2020/07/08,10:30,0.150,0.151,0.224,0.222,0.231,0.129,0.088,north,3.6,Yes
2020/07/08,10:40,0.156,0.156,0.230,0.226,0.237,0.131,0.089,-,CALM,Yes
2020/07/08,10:50,0.157,0.155,0.234,0.228,0.237,0.131,0.090,-,CALM,Yes
2020/07/08,11:00,0.159,0.155,0.232,0.228,0.237,0.130,0.090,-,CALM,Yes
2020/07/08,11:10,0.159,0.155,0.233,0.229,0.240,0.129,0.090,-,CALM,Yes
2020/07/08,11:20,0.160,0.155,0.234,0.229,0.238,0.130,0.090,-,CALM,Yes
2020/07/08,11:30,0.157,0.154,0.230,0.227,0.239,0.129,0.090,north-northeast,7.7,Yes
2020/07/08,11:40,0.157,0.154,0.231,0.228,0.237,0.129,0.088,-,CALM,Yes
2020/07/08,11:50,0.153,0.153,0.224,0.222,0.235,0.127,0.088,-,CALM,Yes
2020/07/08,12:00,0.151,0.150,0.222,0.222,0.235,0.128,0.091,-,CALM,Yes
2020/07/08,12:10,0.154,0.153,0.229,0.227,0.235,0.128,0.090,north-northeast,5.8,Yes
2020/07/08,12:20,0.156,0.154,0.233,0.229,0.238,0.129,0.091,north,3.5,Yes
2020/07/08,12:30,0.159,0.157,0.234,0.231,0.238,0.131,0.092,north-northwest,4.1,Yes
2020/07/08,12:40,0.160,0.155,0.235,0.232,0.240,0.132,0.092,north,4.6,Yes
2020/07/08,12:50,0.164,0.157,0.240,0.235,0.243,0.132,0.093,north,2.1,Yes
2020/07/08,13:00,0.164,0.157,0.239,0.236,0.241,0.132,0.091,north-northwest,1.4,No
2020/07/08,13:10,0.163,0.155,0.241,0.232,0.246,0.132,0.091,north,2.4,Yes
2020/07/08,13:20,0.166,0.155,0.241,0.234,0.244,0.132,0.089,north,2.7,Yes
2020/07/08,13:30,0.163,0.153,0.238,0.232,0.242,0.131,0.088,north,1.7,No
2020/07/08,13:40,0.164,0.154,0.240,0.232,0.243,0.129,0.087,north,3.3,Yes
2020/07/08,13:50,0.164,0.153,0.237,0.233,0.240,0.129,0.086,north,2.9,No
2020/07/08,14:00,0.161,0.149,0.235,0.230,0.239,0.128,0.084,north-northwest,3.0,No
2020/07/08,14:10,0.162,0.150,0.238,0.230,0.241,0.126,0.083,north,2.6,No
2020/07/08,14:20,0.161,0.148,0.237,0.231,0.240,0.125,0.082,north,2.4,No
2020/07/08,14:30,0.160,0.146,0.233,0.229,0.236,0.125,0.080,north,2.0,No
2020/07/08,14:40,0.161,0.148,0.235,0.228,0.236,0.126,0.082,north-northeast,1.9,No
2020/07/08,14:50,0.161,0.148,0.235,0.228,0.234,0.125,0.081,north-northeast,2.0,No
2020/07/08,15:00,0.159,0.146,0.236,0.230,0.237,0.124,0.080,east-northeast,1.7,No
2020/07/08,15:10,0.162,0.146,0.233,0.228,0.239,0.125,0.079,east-southeast,1.6,No
2020/07/08,15:20,0.161,0.147,0.236,0.228,0.237,0.125,0.080,southeast,2.1,No
2020/07/08,15:30,0.161,0.146,0.235,0.231,0.236,0.124,0.080,southeast,2.9,No
2020/07/08,15:40,0.161,0.147,0.234,0.228,0.239,0.125,0.079,south-southeast,3.1,No
2020/07/08,15:50,0.161,0.148,0.236,0.227,0.237,0.125,0.080,south-southeast,2.9,No
2020/07/08,16:00,0.161,0.145,0.236,0.230,0.236,0.125,0.079,south-southeast,3.5,No
2020/07/08,16:10,0.160,0.146,0.234,0.229,0.238,0.125,0.079,south-southeast,2.2,No
2020/07/08,16:20,0.162,0.147,0.235,0.228,0.237,0.126,0.079,south,2.1,No
2020/07/08,16:30,0.162,0.147,0.236,0.230,0.236,0.125,0.079,south,3.7,No
2020/07/08,16:40,0.161,0.146,0.235,0.229,0.235,0.124,0.079,south,3.5,No
2020/07/08,16:50,0.162,0.147,0.236,0.228,0.240,0.126,0.079,south-southeast,3.2,No
2020/07/08,17:00,0.161,0.147,0.238,0.231,0.237,0.124,0.078,south,2.9,No
2020/07/08,17:10,0.161,0.146,0.236,0.228,0.235,0.125,0.078,south,4.1,No
2020/07/08,17:20,0.162,0.148,0.236,0.230,0.239,0.126,0.079,south-southeast,3.5,No
2020/07/08,17:30,0.162,0.147,0.238,0.231,0.237,0.125,0.079,south,4.3,No
2020/07/08,17:40,0.162,0.145,0.236,0.229,0.235,0.125,0.079,south,4.5,No
2020/07/08,17:50,0.163,0.147,0.237,0.231,0.237,0.127,0.079,south,5.0,No
2020/07/08,18:00,0.162,0.147,0.239,0.232,0.239,0.126,0.079,south,5.7,No
2020/07/08,18:10,0.161,0.148,0.236,0.229,0.235,0.125,0.079,south,6.3,No
2020/07/08,18:20,0.163,0.148,0.237,0.231,0.236,0.126,0.078,south,3.9,No
2020/07/08,18:30,0.162,0.147,0.239,0.231,0.239,0.125,0.079,south-southwest,3.7,No
2020/07/08,18:40,0.162,0.147,0.237,0.229,0.236,0.126,0.080,south-southwest,3.4,No
2020/07/08,18:50,0.162,0.148,0.239,0.231,0.237,0.127,0.079,southwest,1.9,No
2020/07/08,19:00,0.162,0.148,0.238,0.230,0.240,0.127,0.079,south-southwest,0.7,No
2020/07/08,19:10,0.162,0.150,0.238,0.230,0.237,0.126,0.080,south,1.2,No
2020/07/08,19:20,0.163,0.147,0.240,0.232,0.237,0.128,0.079,south-southwest,1.7,No
2020/07/08,19:30,0.162,0.149,0.238,0.230,0.239,0.127,0.079,southwest,2.1,No
2020/07/08,19:40,0.164,0.148,0.239,0.232,0.237,0.127,0.079,south-southwest,2.3,No
2020/07/08,19:50,0.162,0.147,0.239,0.231,0.239,0.127,0.080,southwest,2.6,No
2020/07/08,20:00,0.163,0.150,0.239,0.232,0.238,0.127,0.079,south-southwest,1.8,No
2020/07/08,20:10,0.164,0.148,0.240,0.234,0.238,0.128,0.079,south-southwest,3.0,No
2020/07/08,20:20,0.164,0.148,0.238,0.231,0.240,0.126,0.080,south-southwest,4.2,No
2020/07/08,20:30,0.162,0.148,0.238,0.232,0.236,0.127,0.080,south-southwest,3.6,No
2020/07/08,20:40,0.163,0.148,0.240,0.231,0.239,0.127,0.080,south,2.1,No
2020/07/08,20:50,0.162,0.149,0.238,0.231,0.239,0.127,0.079,south,2.2,No
2020/07/08,21:00,0.164,0.149,0.239,0.234,0.237,0.127,0.079,south-southwest,3.0,No
2020/07/08,21:10,0.162,0.150,0.238,0.230,0.240,0.128,0.080,south-southwest,2.2,No
2020/07/08,21:20,0.163,0.149,0.240,0.233,0.238,0.129,0.080,south-southwest,2.3,No
2020/07/08,21:30,0.163,0.151,0.240,0.232,0.239,0.128,0.081,southwest,2.5,No
2020/07/08,21:40,0.162,0.149,0.240,0.233,0.240,0.128,0.080,southwest,2.9,No
2020/07/08,21:50,0.164,0.150,0.241,0.233,0.237,0.129,0.081,west-southwest,4.9,No
2020/07/08,22:00,0.164,0.151,0.239,0.231,0.240,0.128,0.080,west-southwest,3.2,No
2020/07/08,22:10,0.164,0.149,0.240,0.232,0.239,0.128,0.080,west-southwest,3.8,No
2020/07/08,22:20,0.164,0.150,0.241,0.231,0.238,0.129,0.080,west-southwest,4.6,No
2020/07/08,22:30,0.164,0.149,0.240,0.233,0.241,0.128,0.080,west,3.3,No
2020/07/08,22:40,0.164,0.150,0.240,0.232,0.238,0.129,0.081,west,4.3,No
2020/07/08,22:50,0.163,0.149,0.240,0.232,0.239,0.128,0.081,west-southwest,5.7,No
2020/07/08,23:00,0.163,0.150,0.241,0.232,0.239,0.128,0.081,west-southwest,5.5,No
2020/07/08,23:10,0.164,0.150,0.239,0.230,0.237,0.129,0.080,west-southwest,5.4,No
2020/07/08,23:20,0.163,0.149,0.242,0.235,0.240,0.128,0.080,west-southwest,5.4,No
2020/07/08,23:30,0.165,0.150,0.241,0.231,0.238,0.129,0.080,west-southwest,4.6,No
2020/07/08,23:40,0.163,0.149,0.240,0.232,0.237,0.129,0.080,west,3.0,No
2020/07/08,23:50,0.163,0.150,0.241,0.231,0.240,0.128,0.080,west-southwest,3.0,No
